Regional Weather Roundup
Issued by NWS Charleston, SC

Current Version | Previous Version | Graphics & Text | Print | Product List | Glossary On
Versions: 1 2 3 4 5 6 7 8 9 10 11 12 13 14 15 16 17 18 19 20 21 22 23 24 25 26 27 28 29 30 31 32 33 34 35 36 37 38 39 40 41 42 43 44 45 46 47 48 49 50
000
ASUS42 KCHS 300710
RWRCHS

REGIONAL WEATHER ROUNDUP
NATIONAL WEATHER SERVICE CHARLESTON SC
300 AM EDT THU OCT 30 2014

NOTE: "FAIR" INDICATES FEW OR NO CLOUDS BELOW 12,000 FEET WITH NO
SIGNIFICANT WEATHER AND/OR OBSTRUCTIONS TO VISIBILITY.

NOT ALL STATIONS ARE QUALITY CONTROLLED BY THE NATIONAL
WEATHER SERVICE. USE DATA WITH CAUTION...ESPECIALLY
DEWPOINT OBSERVATIONS.

SCZ027-030-031-034>040-042>050-300800-
...SOUTH CAROLINA...

CITY           SKY/WX    TMP DP  RH WIND       PRES   REMARKS
N CHARLESTON   MOCLDY    70  66  87 W7        29.94F
WATERFRONT PRK   N/A     70 N/A N/A W3          N/A
FORT JOHNSON   NOT AVBL
JOHNS ISLAND   PTSUNNY   70  70 100 CALM      29.95F
PINOPOLIS      NOT AVBL
MONCKS CORNER  DRIZZLE   68  68 100 CALM      29.94F
SUMMERVILLE    PTSUNNY   64  64 100 CALM      29.95  FOG
BEAUFORT MCAS    N/A    N/A N/A N/A MISG        N/A
BEAUFORT ARPT  FAIR      70  68  94 SW6       29.95S
HILTON HEAD IS NOT AVBL
GEORGETOWN     NOT AVBL
WALTERBORO     PTSUNNY   68 N/A N/A W5        29.96S
ORANGEBURG     LGT RAIN  66  63  90 S3        29.96S
BARNWELL       PTSUNNY   64  63  94 CALM      29.98R
AIKEN          FAIR      61  61 100 W3        30.01S
MANNING        CLOUDY    68  68 100 CALM      29.96R THUNDER
KINGSTREE      NOT AVBL
COLUMBIA       CLOUDY    66  49  54 NE10      29.98R
SUMTER         CLOUDY    63  55  77 N12       29.96S
FLORENCE       CLOUDY    61  53  75 NE9       29.98S
MYRTLE BEACH   CLOUDY    70  63  78 NW6       29.94F
N MYRTLE BEACH LGT RAIN  65  63  93 N10G17    29.94S FOG

$$

GAZ063-065-086>088-099>101-113>116-118-119-134-136>141-150-300800-
...GEORGIA...

CITY           SKY/WX    TMP DP  RH WIND       PRES   REMARKS
SAVANNAH ARPT  PTCLDY    68  63  84 W3        29.96F
HUNTER AAF     CLOUDY    67  66  96 W3        29.94F
FORT STEWART   PTCLDY    63  61  93 CALM      29.95F
STATESBORO     NOT AVBL
SYLVANIA       PTSUNNY   70  69  97 N3        29.97F
CLAXTON          N/A     64  64 100 CALM      29.97S FOG
THOMSON        CLEAR     54  54 100 CALM      30.05S
AUGUSTA-BUSH   MOCLDY    62  54  74 NW8       29.98S
AUGUSTA-DANIEL PTCLDY    62  52  69 NW6       30.00R
SWAINSBORO     CLOUDY    64  64 100 MISG      30.00S
VIDALIA        CLEAR     64  63  94 NW5       29.99S
ALMA           PTCLDY    66  63  90 CALM      29.98F
WAYCROSS       CLOUDY    70  67  92 W3        29.98F
JESUP          FAIR      64  63  94 CALM      29.97F
BRUNSWICK      CLEAR     64  63  94 CALM      29.98S
SAINT SIMONS   CLEAR     68  64  87 W6        29.96F

$$

SCZ027-028-034-036>038-045-046-048>050-GAZ119-141-300800-
...LAKE AND SUPPLEMENTAL COASTAL OBSERVATIONS...

STATION/POSITION TIME  TEMP    WIND        PRES    WAVE   SWELL
                       AIR SEA DIR/SP/G            HT/PER HT/PER/DIR
                 (UTC) (F)     (DEG/KT/KT) (MB)    (FT/S) (FT/S/D)
UPR LAKE MARION  NOT AVBL
WINYAH BAY       0600   68     270/  4     1014.0S
LAKE MURRAY      0600   64      20/  3/  6 1014.9R
ACE BASIN NERRS  0600   68        CALM     1014.0S
FORT PULASKI     0700   71     250/  5/  7 1014.6F
SAPELO ISLAND    NOT AVBL

$$

ANZ835-935-AMZ111-154-330-350-352-354-374-450-454-472-300800-
...C-MAN AND BUOY OBSERVATIONS...

STATION/POSITION TIME  TEMP    WIND        PRES    WAVE   SWELL
                       AIR SEA DIR/SP/G            HT/PER HT/PER/DIR
                 (UTC) (F)     (DEG/KT/KT) (MB)    (FT/S) (FT/S/D)
FOLLY BEACH CMAN 0600   72     230/  6/  9 1014.7F
BUOY 41004       0700   77 77  210/ 16/ 17 1013.2F   2/ 4   2/ 7
BUOY 41008       0700   74 74  240/ 12/ 14 1014.3F   2/ 3
5E ST. MARYS GA  0700      76                N/A     2/10
FRYING PAN BUOY  0700   75 73  230/ 14/ 17 1013.9F   3/ 5
BUOY 41025       0700   74     270/ 23/ 31 1011.7F   4/ 5
CAPE LOOKOUT NC  0600   70     270/ 11/ 13 1013.5R
BUOY 41002       0636   75 76  240/  8/ 10 1015.3F   2/ 8   2/120/ 8
BUOY 41010       0700   77 81   CALM  /  2 1014.7F   2/ 7   2/110/ 7
BUOY 41012       NOT AVBL
ST AUGUSTINE FL  0700   68     260/  6/  7 1015.5F
CAPERS NEARSHORE 0600   73     260/  8/ 12   N/A
FRIPP NEARSHORE  NOT AVBL


$$



USA.gov is the U.S. government's official web portal to all federal, state and local government web resources and services.